Back to catalog

ARIANE 5 DEB

SYLDA

AliveHEO
NORAD 41947·DEBRIS·🇫🇷 France

Launched Feb 14, 2017 from Guiana Space Centre

Loading…

Next Passes (next 24 hours)

TLE

FreshSource: Space-Track

Epoch: Sep 14, 2026, 09:21 UTC

1 41947U 17007D   26257.38992940  .00229255  00000-0  45283-2 0  9995
2 41947   3.9492 294.7135 4207363 152.0635 238.8845  7.14770536119360

Track ARIANE 5 DEB in real time with AllMySat

Download on the App Store